Location: Caltech
(34.1382°N, 118.1253°W)
Time: 21:05:24
(UTC-07:00)

Oscar 10/S400 - Visible Passes

Search period start: 31 October 2014 00:00
Search period end: 09 November 2014 23:00
Orbit: 3956 x 35490 km, 26.0° (Epoch: 28 October)

Date Brightness Start Highest point End Pass type
(mag) Time Alt. Az. Time Alt. Az. Time Alt. Az.
31 Oct ? 00:00:00 26° SSE 23:59:30 26° SSE 04:32:30 10° SSE visible
31 Oct ? 17:42:14 10° W 18:04:01 73° S 03:28:39 10° SSE visible
01 Nov ? 16:57:59 10° W 17:18:01 73° S 01:13:40 10° SSE visible
02 Nov ? 15:13:39 10° WSW 15:32:35 72° S 17:00:26 10° ESE visible
08 Nov ? 23:57:25 10° W 00:55:12 18° WSW 02:49:39 10° WSW visible
09 Nov ? 22:59:46 10° W 23:00:00 10° W 23:00:00 10° W visible
